Wind_Speed
13 14 13 12 11 11 11 11 12 10 8 8 11 15 12 8 8 10 12 13 15 16 15 16 15 13 11 10 10 10 10 11 11 12 13 14 15 15 16 16 16 17 18 18
14 13 11 10 8 7 10 10 9 9 9 9 11 13 9 7 8 8 10 10 11 10 11 11 11 10 9 8 9 9 9 9 10 11 12 13 14 15 15 16 17 17 18 18
10 11 13 12 8 9 11 12 11 10 10 9 10 10 9 9 7 5 6 6 4 5 5 7 7 6 6 6 6 7 8 9 10 11 12 13 15 16 17 17 18 18 18 19
8 9 12 11 10 9 12 11 10 10 11 11 10 10 11 9 8 4 4 2 1 1 3 4 4 4 4 4 5 6 8 9 11 12 14 15 16 17 18 19 19 19 19 19
9 12 13 12 11 9 10 8 7 8 11 9 8 10 13 11 9 7 6 4 2 1 2 3 3 2 2 3 5 7 9 10 12 14 16 17 18 19 19 20 20 20 20 20
9 10 11 11 10 8 7 7 9 12 11 5 8 8 11 11 9 8 8 6 3 2 1 1 2 3 4 6 7 9 10 12 13 15 17 18 19 20 21 21 22 22 22 21
15 14 12 10 10 10 8 9 15 17 14 9 10 7 9 10 9 8 7 7 5 4 4 4 5 5 7 8 9 10 11 13 14 16 17 19 20 21 21 22 23 23 23 23
18 17 10 10 12 11 8 8 12 13 14 10 5 6 9 9 8 8 8 7 7 6 6 7 8 8 9 10 11 12 13 14 15 17 18 19 21 21 22 22 23 23 24 25
16 16 11 12 13 11 8 7 9 10 9 9 2 7 10 8 9 10 9 9 9 9 9 10 11 11 11 12 12 13 14 15 16 18 19 20 22 23 23 24 24 25 25 26
15 15 13 15 12 11 10 8 7 6 8 12 6 6 8 11 14 13 12 12 12 12 13 13 13 13 13 13 14 14 15 16 17 18 20 20 21 23 23 24 25 26 26 27
14 15 13 15 12 8 12 10 8 7 7 9 14 9 8 14 17 17 15 15 15 15 16 15 15 15 14 14 14 15 16 17 18 19 21 22 22 23 24 24 25 26 27 29
16 16 15 16 16 13 13 10 11 10 9 7 11 10 8 14 19 20 19 18 18 18 18 18 16 16 16 15 15 15 16 18 19 20 21 22 23 24 24 25 26 27 29 30
17 17 15 15 20 16 13 10 10 11 11 8 11 16 15 15 16 18 20 21 20 19 19 19 18 17 16 16 16 17 17 18 19 21 22 23 24 25 25 26 27 29 31 32
15 16 15 16 19 15 7 7 9 9 11 13 14 15 16 17 17 20 22 21 21 20 18 19 18 17 17 17 18 18 19 20 21 22 23 24 25 26 26 27 29 31 33 34
16 15 14 15 16 17 12 8 10 13 15 15 16 16 17 20 23 24 24 22 21 20 19 19 18 18 18 19 19 19 20 21 23 24 25 26 26 27 28 30 32 34 35 36
19 17 16 14 13 13 15 13 14 14 15 16 15 16 20 23 23 23 22 22 21 20 20 19 18 19 19 20 20 21 22 23 24 26 26 27 28 30 31 32 34 36 37 38
20 20 18 15 13 15 16 15 16 17 16 15 16 20 22 23 23 22 21 21 20 20 20 19 20 20 20 21 22 22 23 25 26 27 28 29 30 31 33 35 36 37 39 41
21 19 19 16 14 16 15 16 16 15 14 16 19 20 20 22 20 19 20 20 20 20 21 21 22 22 22 22 23 24 25 26 28 28 29 31 32 33 35 36 38 39 41 43
21 19 17 16 16 16 17 19 19 18 17 18 18 19 20 21 20 20 21 20 21 21 22 23 24 24 24 24 25 26 27 28 29 30 31 33 34 36 37 39 40 41 43 45
21 19 17 17 16 16 21 24 22 21 21 20 19 19 19 20 19 21 23 24 24 24 25 25 25 26 26 26 26 27 28 30 31 32 33 35 36 38 39 41 43 44 45 46
22 19 18 16 16 18 24 24 24 22 23 20 20 21 22 24 25 25 25 26 27 27 27 27 27 28 28 28 29 30 31 32 34 35 36 38 40 40 40 42 45 46 46 47
21 21 21 20 20 24 26 26 25 23 23 23 23 25 26 28 29 28 28 28 29 28 29 29 29 30 30 30 32 32 34 35 37 38 39 40 41 42 44 45 46 48 48 48
21 23 25 26 26 27 27 27 27 25 24 26 27 28 29 29 29 30 30 30 30 29 30 31 32 32 32 33 34 35 37 39 40 41 43 43 44 45 47 48 49 49 49 50
25 26 27 29 30 28 27 29 29 29 28 29 30 30 30 30 30 30 31 30 31 31 33 34 35 35 36 36 37 39 40 41 42 44 46 47 48 49 49 49 50 50 51 52
29 29 29 30 32 32 31 31 31 31 32 32 31 32 32 32 32 33 32 32 34 35 35 36 37 38 39 40 40 41 43 44 45 48 49 49 50 50 50 50 51 52 52 52
30 30 30 31 31 32 34 34 33 33 33 32 32 33 33 33 34 34 34 35 36 37 37 38 39 40 42 43 44 45 46 47 48 49 51 51 51 52 52 52 53 52 52 51
Wind_Direction
21 15 6 345 331 323 311 308 307 314 322 315 304 304 301 312 297 287 278 274 269 264 263 264 267 268 271 272 280 291 300 304 309 311 313 316 318 320 321 321 321 318 316 314
1 342 336 323 320 318 307 304 309 313 318 328 315 311 325 330 316 299 286 284 273 262 258 259 254 258 260 268 282 295 303 310 315 318 322 325 329 331 332 331 329 325 321 318
313 314 316 318 313 307 309 315 333 340 329 320 306 312 324 327 326 330 313 304 282 252 245 240 239 241 249 268 290 304 313 320 326 330 332 335 337 337 336 333 330 326 322 319
302 299 309 315 306 309 315 322 333 326 305 304 322 339 348 344 3 2 6 8 10 253 221 221 224 238 260 287 307 318 324 330 334 337 338 337 336 334 332 331 329 326 323 320
300 303 309 312 308 310 306 305 301 283 279 295 336 355 359 5 17 36 30 21 29 14 221 217 241 286 330 337 335 331 334 337 339 340 340 338 337 335 332 329 327 325 323 320
289 286 298 306 305 309 307 301 306 305 296 319 20 12 353 4 13 27 30 28 27 29 41 17 351 350 347 342 338 337 338 340 341 341 340 338 336 335 332 330 329 327 325 321
300 283 278 306 315 307 311 315 326 336 349 22 31 10 337 351 357 3 13 21 25 27 19 5 349 344 339 338 338 339 339 340 340 338 337 335 334 332 331 329 329 327 325 322
291 293 290 305 311 303 310 316 323 338 341 350 10 327 332 343 344 345 349 355 1 1 357 351 346 342 338 335 336 338 337 336 336 335 333 332 332 331 329 328 327 326 325 324
286 299 305 295 300 300 291 288 305 318 314 293 262 321 322 336 339 336 334 336 339 339 338 338 338 335 333 332 332 333 333 332 332 332 332 331 330 330 329 328 327 326 324 323
276 284 287 290 300 307 299 285 271 278 311 322 307 265 285 323 328 327 326 326 327 327 328 329 328 328 327 326 326 327 327 327 328 329 329 328 328 327 327 327 327 326 325 324
277 273 273 278 276 266 283 290 284 265 262 297 314 312 314 316 318 320 320 321 321 323 323 322 322 321 320 320 320 320 322 324 325 325 325 325 326 327 326 326 326 326 325 324
273 271 265 270 269 248 244 254 270 272 267 273 298 297 297 303 310 314 316 317 317 319 319 317 317 316 314 314 314 316 319 321 321 321 322 323 324 325 325 325 326 326 326 325
279 276 272 267 266 258 239 224 245 271 275 273 279 286 291 293 298 304 308 310 311 312 311 309 310 309 309 309 311 313 315 316 318 319 320 320 322 322 322 323 324 325 325 325
284 278 272 268 286 297 263 224 243 267 273 273 274 282 291 294 291 296 300 302 303 303 303 303 304 305 305 307 308 311 313 315 317 318 318 318 319 320 321 322 323 324 324 324
284 281 274 266 271 290 296 275 262 269 272 271 274 282 283 283 287 292 297 298 299 299 299 300 301 303 303 304 306 308 310 313 315 316 316 316 316 318 319 320 322 324 324 324
281 282 277 270 265 276 279 275 272 270 271 271 271 270 270 274 282 289 294 295 296 297 298 300 301 302 302 303 304 306 308 311 312 313 314 315 315 316 318 319 320 323 324 325
285 286 281 274 260 259 264 260 261 259 257 263 266 265 270 276 283 290 293 293 294 295 297 299 301 301 302 303 304 305 307 309 311 311 312 314 314 315 316 318 320 322 324 326
283 283 281 279 263 260 265 260 260 261 259 265 269 272 276 281 286 289 290 292 295 299 301 302 301 301 302 302 303 305 307 309 310 310 311 312 313 313 315 317 319 321 323 326
268 276 281 277 267 268 264 260 251 246 246 254 263 268 277 285 289 291 291 295 296 298 300 301 301 301 301 301 303 305 306 308 309 308 309 310 310 312 314 317 319 319 322 325
267 272 278 279 271 266 268 269 266 260 255 255 263 267 268 276 281 285 290 292 293 295 298 299 298 299 300 301 302 303 305 306 307 308 310 309 309 311 313 316 318 319 320 323
278 277 280 280 272 266 263 268 273 267 262 260 263 266 268 274 282 288 290 290 291 294 295 295 295 296 298 299 301 302 304 305 306 307 309 309 310 310 311 315 317 319 321 322
281 285 281 276 271 264 261 261 265 267 268 269 272 278 279 280 284 285 286 287 288 290 291 292 293 294 295 297 299 300 302 303 304 306 307 309 310 312 314 314 317 320 321 322
265 268 271 272 272 271 268 267 268 269 272 277 280 282 283 282 283 283 285 286 288 289 290 291 293 293 294 296 298 299 301 302 304 306 307 308 310 312 314 315 316 318 318 319
259 260 261 265 274 275 277 279 280 281 282 282 282 281 280 281 282 282 284 285 286 288 289 291 292 293 293 295 296 298 299 301 303 306 307 308 309 309 311 312 314 314 316 317
262 264 265 266 270 274 277 283 284 283 282 280 280 280 281 282 282 283 284 284 285 287 288 288 290 292 293 294 296 296 298 300 301 303 305 307 308 309 309 310 311 313 314 316
261 263 267 268 272 276 277 280 281 282 282 281 281 281 282 282 283 284 285 285 285 286 287 288 288 290 292 293 294 295 296 298 299 301 303 303 305 307 307 308 309 310 312 313
Height
5886 5885 5884 5884 5884 5883 5880 5876 5874 5872 5872 5870 5867 5863 5860 5860 5861 5861 5861 5860 5860 5861 5862 5864 5865 5866 5867 5867 5868 5868 5867 5866 5865 5864 5863 5861 5859 5857 5855 5853 5851 5849 5847 5845
5887 5887 5887 5885 5884 5882 5879 5877 5875 5874 5871 5869 5866 5861 5859 5859 5859 5858 5859 5857 5857 5858 5859 5861 5862 5864 5865 5865 5866 5866 5865 5864 5863 5862 5860 5859 5857 5855 5852 5850 5848 5846 5844 5842
5890 5890 5887 5885 5883 5881 5879 5877 5875 5874 5872 5870 5866 5863 5861 5858 5856 5856 5857 5857 5856 5857 5858 5859 5861 5862 5863 5864 5864 5864 5864 5863 5861 5860 5858 5856 5854 5852 5850 5848 5846 5843 5841 5839
5889 5888 5886 5884 5882 5880 5879 5877 5875 5872 5870 5868 5866 5863 5861 5859 5857 5857 5858 5858 5858 5857 5858 5859 5860 5861 5862 5863 5863 5862 5862 5861 5859 5858 5856 5854 5852 5850 5847 5845 5843 5841 5838 5836
5888 5887 5885 5883 5881 5880 5878 5876 5874 5870 5867 5865 5865 5863 5862 5859 5858 5859 5859 5858 5858 5857 5858 5859 5860 5861 5861 5861 5861 5861 5860 5858 5857 5855 5853 5851 5849 5847 5845 5842 5840 5838 5835 5833
5884 5884 5883 5882 5880 5879 5877 5875 5873 5869 5865 5864 5865 5865 5864 5861 5861 5860 5860 5859 5858 5858 5858 5859 5860 5860 5860 5859 5859 5859 5857 5856 5854 5853 5851 5849 5847 5844 5842 5839 5837 5834 5832 5830
5881 5880 5878 5878 5878 5877 5876 5874 5871 5866 5862 5863 5865 5866 5865 5864 5863 5862 5861 5861 5859 5859 5859 5859 5859 5859 5858 5858 5857 5856 5855 5854 5852 5851 5849 5847 5844 5842 5839 5836 5833 5831 5828 5826
5879 5876 5874 5876 5877 5875 5875 5874 5873 5871 5868 5866 5866 5867 5866 5865 5864 5863 5862 5861 5861 5860 5859 5859 5858 5857 5857 5856 5855 5854 5853 5851 5850 5848 5846 5844 5842 5839 5836 5834 5831 5827 5824 5821
5879 5876 5875 5875 5875 5874 5873 5873 5873 5871 5869 5867 5865 5865 5864 5864 5864 5863 5862 5862 5861 5860 5859 5857 5856 5856 5855 5854 5852 5851 5850 5849 5848 5846 5844 5841 5838 5836 5833 5830 5827 5824 5820 5817
5877 5876 5876 5874 5872 5872 5872 5871 5871 5870 5869 5866 5863 5863 5863 5863 5863 5862 5862 5860 5860 5858 5857 5856 5854 5853 5852 5851 5850 5849 5848 5847 5845 5843 5841 5839 5836 5833 5830 5826 5823 5820 5816 5813
5874 5874 5873 5872 5869 5869 5870 5870 5868 5869 5868 5867 5863 5862 5860 5861 5861 5860 5860 5859 5857 5856 5855 5854 5852 5851 5850 5849 5848 5846 5845 5843 5842 5840 5837 5835 5832 5829 5826 5823 5819 5815 5812 5808
5870 5870 5869 5868 5865 5863 5865 5866 5867 5867 5866 5866 5865 5864 5860 5861 5859 5858 5857 5856 5855 5854 5852 5851 5850 5848 5847 5846 5845 5844 5842 5840 5838 5836 5834 5831 5828 5825 5822 5819 5815 5811 5807 5802
5866 5865 5865 5865 5863 5860 5860 5862 5864 5864 5864 5864 5864 5863 5858 5858 5857 5856 5855 5854 5853 5852 5850 5848 5847 5846 5844 5843 5842 5840 5839 5837 5835 5833 5830 5827 5824 5821 5818 5814 5810 5805 5801 5796
5862 5861 5862 5861 5858 5856 5856 5858 5860 5861 5862 5862 5860 5858 5855 5854 5854 5854 5853 5852 5850 5849 5848 5846 5844 5843 5841 5840 5838 5836 5835 5833 5831 5828 5826 5823 5820 5816 5812 5808 5804 5799 5795 5789
5857 5857 5857 5857 5856 5854 5853 5855 5858 5858 5859 5859 5858 5856 5853 5851 5851 5851 5849 5848 5847 5845 5844 5843 5841 5839 5837 5836 5834 5833 5831 5828 5826 5823 5821 5818 5814 5811 5807 5803 5798 5793 5788 5782
5852 5852 5853 5853 5853 5853 5853 5854 5854 5855 5855 5854 5854 5854 5851 5849 5848 5847 5846 5844 5843 5841 5840 5839 5837 5835 5834 5832 5830 5828 5826 5824 5821 5818 5815 5812 5808 5804 5800 5796 5792 5787 5781 5775
5849 5848 5848 5848 5849 5848 5849 5850 5850 5849 5849 5849 5849 5848 5846 5845 5844 5843 5842 5840 5838 5837 5835 5834 5832 5831 5829 5827 5825 5823 5821 5818 5816 5812 5809 5806 5802 5798 5794 5789 5784 5779 5773 5767
5844 5843 5843 5843 5844 5844 5846 5843 5843 5843 5843 5843 5843 5842 5841 5839 5839 5838 5837 5835 5834 5832 5830 5829 5827 5826 5824 5822 5820 5817 5815 5812 5809 5806 5803 5799 5795 5791 5787 5782 5777 5771 5766 5759
5839 5838 5838 5838 5838 5838 5839 5836 5837 5837 5837 5836 5836 5835 5835 5834 5834 5832 5830 5830 5828 5827 5825 5823 5821 5820 5818 5816 5814 5811 5809 5806 5803 5799 5796 5792 5788 5784 5779 5774 5769 5763 5757 5751
5832 5833 5834 5833 5833 5834 5833 5830 5830 5832 5830 5830 5829 5830 5829 5828 5828 5826 5825 5824 5822 5821 5819 5818 5816 5814 5812 5809 5807 5804 5801 5798 5795 5792 5788 5784 5780 5775 5770 5765 5759 5754 5748 5742
5825 5825 5825 5827 5828 5829 5826 5825 5825 5825 5824 5822 5822 5823 5823 5822 5821 5819 5818 5817 5816 5815 5813 5811 5809 5807 5805 5802 5799 5797 5794 5790 5787 5783 5780 5776 5771 5766 5762 5756 5751 5744 5738 5732
5822 5821 5820 5821 5822 5823 5819 5819 5819 5817 5817 5815 5815 5815 5815 5815 5814 5813 5812 5811 5809 5808 5806 5804 5802 5800 5797 5795 5792 5789 5785 5782 5778 5775 5770 5766 5762 5757 5752 5746 5741 5735 5728 5722
5818 5819 5816 5816 5816 5814 5812 5811 5811 5811 5810 5810 5810 5810 5809 5808 5808 5807 5805 5804 5802 5801 5798 5796 5793 5791 5789 5786 5783 5780 5776 5773 5769 5765 5761 5756 5751 5747 5741 5736 5730 5724 5718 5712
5811 5811 5811 5809 5807 5805 5805 5806 5805 5804 5805 5804 5804 5803 5802 5801 5800 5799 5797 5796 5794 5792 5790 5787 5785 5782 5779 5777 5774 5771 5767 5763 5759 5755 5751 5746 5741 5736 5731 5725 5720 5714 5708 5701
5805 5804 5804 5803 5801 5800 5799 5800 5799 5798 5798 5797 5796 5795 5794 5793 5791 5790 5789 5788 5785 5784 5781 5778 5775 5772 5769 5767 5764 5760 5757 5753 5749 5744 5739 5735 5730 5725 5720 5714 5709 5703 5698 5691
5797 5797 5798 5796 5795 5794 5792 5792 5791 5790 5789 5789 5788 5787 5785 5784 5782 5781 5779 5778 5776 5774 5771 5769 5766 5763 5759 5756 5753 5749 5746 5742 5738 5733 5728 5723 5718 5713 5708 5702 5697 5692 5687 5681